Year,Month,Day,Hour,Minute,Value (Times are PST for temperature in C)
2007,06,20,00,00,14.10
2007,06,20,00,01,14.10
2007,06,20,00,02,14.00
2007,06,20,00,03,14.00
2007,06,20,00,04,14.00
2007,06,20,00,05,13.90
2007,06,20,00,06,13.90
2007,06,20,00,07,13.90
2007,06,20,00,08,13.80
2007,06,20,00,09,13.80
2007,06,20,00,10,13.80
2007,06,20,00,11,13.80
2007,06,20,00,12,13.80
2007,06,20,00,13,13.80
2007,06,20,00,14,13.80
2007,06,20,00,15,13.80
2007,06,20,00,16,13.80
2007,06,20,00,17,13.90
2007,06,20,00,18,13.90
2007,06,20,00,19,13.90
2007,06,20,00,20,13.80
2007,06,20,00,21,13.80
2007,06,20,00,22,13.80
2007,06,20,00,23,13.80
2007,06,20,00,24,13.80
2007,06,20,00,25,13.80
2007,06,20,00,26,13.80
2007,06,20,00,27,13.80
2007,06,20,00,28,13.80
2007,06,20,00,29,13.70
2007,06,20,00,30,13.70
2007,06,20,00,31,13.70
2007,06,20,00,32,13.70
2007,06,20,00,33,13.70
2007,06,20,00,34,13.70
2007,06,20,00,35,13.70
2007,06,20,00,36,13.70
2007,06,20,00,37,13.70
2007,06,20,00,38,13.70
2007,06,20,00,39,13.70
2007,06,20,00,40,13.80
2007,06,20,00,41,13.80
2007,06,20,00,42,13.80
2007,06,20,00,43,13.80
2007,06,20,00,44,13.80
2007,06,20,00,45,13.80
2007,06,20,00,46,13.80
2007,06,20,00,47,13.80
2007,06,20,00,48,13.90
2007,06,20,00,49,13.90
2007,06,20,00,50,13.90
2007,06,20,00,51,13.90
2007,06,20,00,52,13.90
2007,06,20,00,53,13.90
2007,06,20,00,54,13.90
2007,06,20,00,55,13.90
2007,06,20,00,56,13.90
2007,06,20,00,57,13.90
2007,06,20,00,58,13.90
2007,06,20,00,59,13.90
2007,06,20,01,00,13.90
2007,06,20,01,01,13.90
2007,06,20,01,02,13.90
2007,06,20,01,03,13.90
2007,06,20,01,04,13.90
2007,06,20,01,05,13.90
2007,06,20,01,06,13.90
2007,06,20,01,07,13.90
2007,06,20,01,08,13.90
2007,06,20,01,09,13.90
2007,06,20,01,10,13.90
2007,06,20,01,11,13.90
2007,06,20,01,12,13.90
2007,06,20,01,13,13.90
2007,06,20,01,14,13.80
2007,06,20,01,15,13.80
2007,06,20,01,16,13.80
2007,06,20,01,17,13.80
2007,06,20,01,18,13.80
2007,06,20,01,19,13.80
2007,06,20,01,20,13.80
2007,06,20,01,21,13.80
2007,06,20,01,22,13.80
2007,06,20,01,23,13.80
2007,06,20,01,24,13.70
2007,06,20,01,25,13.70
2007,06,20,01,26,13.70
2007,06,20,01,27,13.70
2007,06,20,01,28,13.70
2007,06,20,01,29,13.70
2007,06,20,01,30,13.70
2007,06,20,01,31,13.60
2007,06,20,01,32,13.60
2007,06,20,01,33,13.50
2007,06,20,01,34,13.50
2007,06,20,01,35,13.50
2007,06,20,01,36,13.40
2007,06,20,01,37,13.40
2007,06,20,01,38,13.30
2007,06,20,01,39,13.30
2007,06,20,01,40,13.30
2007,06,20,01,41,13.30
2007,06,20,01,42,13.30
2007,06,20,01,43,13.30
2007,06,20,01,44,13.20
2007,06,20,01,45,13.20
2007,06,20,01,46,13.20
2007,06,20,01,47,13.20
2007,06,20,01,48,13.10
2007,06,20,01,49,13.10
2007,06,20,01,50,13.10
2007,06,20,01,51,13.10
2007,06,20,01,52,13.00
2007,06,20,01,53,13.00
2007,06,20,01,54,13.00
2007,06,20,01,55,13.00
2007,06,20,01,56,12.90
2007,06,20,01,57,12.90
2007,06,20,01,58,12.90
2007,06,20,01,59,12.90
2007,06,20,02,00,12.80
2007,06,20,02,01,12.80
2007,06,20,02,02,12.80
2007,06,20,02,03,12.80
2007,06,20,02,04,12.80
2007,06,20,02,05,12.80
2007,06,20,02,06,12.70
2007,06,20,02,07,12.70
2007,06,20,02,08,12.60
2007,06,20,02,09,12.60
2007,06,20,02,10,12.60
2007,06,20,02,11,12.50
2007,06,20,02,12,12.50
2007,06,20,02,13,12.50
2007,06,20,02,14,12.40
2007,06,20,02,15,12.40
2007,06,20,02,16,12.40
2007,06,20,02,17,12.30
2007,06,20,02,18,12.30
2007,06,20,02,19,12.30
2007,06,20,02,20,12.30
2007,06,20,02,21,12.20
2007,06,20,02,22,12.20
2007,06,20,02,23,12.10
2007,06,20,02,24,12.10
2007,06,20,02,25,12.10
2007,06,20,02,26,12.10
2007,06,20,02,27,12.10
2007,06,20,02,28,12.10
2007,06,20,02,29,12.10
2007,06,20,02,30,12.10
2007,06,20,02,31,12.10
2007,06,20,02,32,12.10
2007,06,20,02,33,12.10
2007,06,20,02,34,12.10
2007,06,20,02,35,12.00
2007,06,20,02,36,12.00
2007,06,20,02,37,12.00
2007,06,20,02,38,12.00
2007,06,20,02,39,11.90
2007,06,20,02,40,11.90
2007,06,20,02,41,11.90
2007,06,20,02,42,11.90
2007,06,20,02,43,11.90
2007,06,20,02,44,11.80
2007,06,20,02,45,11.80
2007,06,20,02,46,11.80
2007,06,20,02,47,11.80
2007,06,20,02,48,11.80
2007,06,20,02,49,11.80
2007,06,20,02,50,11.80
2007,06,20,02,51,11.80
2007,06,20,02,52,11.70
2007,06,20,02,53,11.70
2007,06,20,02,54,11.70
2007,06,20,02,55,11.70
2007,06,20,02,56,11.60
2007,06,20,02,57,11.60
2007,06,20,02,58,11.60
2007,06,20,02,59,11.60
2007,06,20,03,00,11.60
2007,06,20,03,01,11.60
2007,06,20,03,02,11.60
2007,06,20,03,03,11.50
2007,06,20,03,04,11.40
2007,06,20,03,05,11.40
2007,06,20,03,06,11.40
2007,06,20,03,07,11.40
2007,06,20,03,08,11.30
2007,06,20,03,09,11.30
2007,06,20,03,10,11.30
2007,06,20,03,11,11.20
2007,06,20,03,12,11.20
2007,06,20,03,13,11.20
2007,06,20,03,14,11.10
2007,06,20,03,15,11.10
2007,06,20,03,16,11.10
2007,06,20,03,17,11.10
2007,06,20,03,18,11.00
2007,06,20,03,19,10.90
2007,06,20,03,20,10.90
2007,06,20,03,21,10.90
2007,06,20,03,22,10.90
2007,06,20,03,23,10.80
2007,06,20,03,24,10.80
2007,06,20,03,25,10.70
2007,06,20,03,26,10.70
2007,06,20,03,27,10.70
2007,06,20,03,28,10.60
2007,06,20,03,29,10.60
2007,06,20,03,30,10.60
2007,06,20,03,31,10.60
2007,06,20,03,32,10.50
2007,06,20,03,33,10.40
2007,06,20,03,34,10.40
2007,06,20,03,35,10.40
2007,06,20,03,36,10.40
2007,06,20,03,37,10.40
2007,06,20,03,38,10.30
2007,06,20,03,39,10.30
2007,06,20,03,40,10.30
2007,06,20,03,41,10.30
2007,06,20,03,42,10.30
2007,06,20,03,43,10.20
2007,06,20,03,44,10.20
2007,06,20,03,45,10.20
2007,06,20,03,46,10.20
2007,06,20,03,47,10.20
2007,06,20,03,48,10.10
2007,06,20,03,49,10.10
2007,06,20,03,50,10.10
2007,06,20,03,51,10.10
2007,06,20,03,52,10.10
2007,06,20,03,53,10.10
2007,06,20,03,54,10.10
2007,06,20,03,55,10.10
2007,06,20,03,56,10.10
2007,06,20,03,57,9.90
2007,06,20,03,58,9.90
2007,06,20,03,59,9.90
2007,06,20,04,00,9.90
2007,06,20,04,01,9.90
2007,06,20,04,02,9.90
2007,06,20,04,03,9.90
2007,06,20,04,04,9.90
2007,06,20,04,05,9.90
2007,06,20,04,06,9.90
2007,06,20,04,07,9.90
2007,06,20,04,08,9.80
2007,06,20,04,09,9.80
2007,06,20,04,10,9.80
2007,06,20,04,11,9.80
2007,06,20,04,12,9.80
2007,06,20,04,13,9.80
2007,06,20,04,14,9.80
2007,06,20,04,15,9.80
2007,06,20,04,16,9.80
2007,06,20,04,17,9.70
2007,06,20,04,18,9.70
2007,06,20,04,19,9.70
2007,06,20,04,20,9.70
2007,06,20,04,21,9.70
2007,06,20,04,22,9.70
2007,06,20,04,23,9.70
2007,06,20,04,24,9.70
2007,06,20,04,25,9.70
2007,06,20,04,26,9.70
2007,06,20,04,27,9.70
2007,06,20,04,28,9.70
2007,06,20,04,29,9.70
2007,06,20,04,30,9.70
2007,06,20,04,31,9.70
2007,06,20,04,32,9.70
2007,06,20,04,33,9.70
2007,06,20,04,34,9.70
2007,06,20,04,35,9.70
2007,06,20,04,36,9.70
2007,06,20,04,37,9.70
2007,06,20,04,38,9.70
2007,06,20,04,39,9.70
2007,06,20,04,40,9.70
2007,06,20,04,41,9.70
2007,06,20,04,42,9.70
2007,06,20,04,43,9.70
2007,06,20,04,44,9.70
2007,06,20,04,45,9.70
2007,06,20,04,46,9.70
2007,06,20,04,47,9.60
2007,06,20,04,48,9.60
2007,06,20,04,49,9.60
2007,06,20,04,50,9.60
2007,06,20,04,51,9.60
2007,06,20,04,52,9.60
2007,06,20,04,53,9.60
2007,06,20,04,54,9.50
2007,06,20,04,55,9.50
2007,06,20,04,56,9.50
2007,06,20,04,57,9.50
2007,06,20,04,58,9.50
2007,06,20,04,59,9.50
2007,06,20,05,00,9.40
2007,06,20,05,01,9.40
2007,06,20,05,02,9.40
2007,06,20,05,03,9.40
2007,06,20,05,04,9.30
2007,06,20,05,05,9.30
2007,06,20,05,06,9.30
2007,06,20,05,07,9.30
2007,06,20,05,08,9.30
2007,06,20,05,09,9.30
2007,06,20,05,10,9.20
2007,06,20,05,11,9.20
2007,06,20,05,12,9.20
2007,06,20,05,13,9.20
2007,06,20,05,14,9.20
2007,06,20,05,15,9.20
2007,06,20,05,16,9.20
2007,06,20,05,17,9.20
2007,06,20,05,18,9.20
2007,06,20,05,19,9.20
2007,06,20,05,20,9.20
2007,06,20,05,21,9.20
2007,06,20,05,22,9.20
2007,06,20,05,23,9.20
2007,06,20,05,24,9.20
2007,06,20,05,25,9.20
2007,06,20,05,26,9.20
2007,06,20,05,27,9.20
2007,06,20,05,28,9.20
2007,06,20,05,29,9.20
2007,06,20,05,30,9.20
2007,06,20,05,31,9.20
2007,06,20,05,32,9.20
2007,06,20,05,33,9.20
2007,06,20,05,34,9.20
2007,06,20,05,35,9.20
2007,06,20,05,36,9.20
2007,06,20,05,37,9.20
2007,06,20,05,38,9.20
2007,06,20,05,39,9.20
2007,06,20,05,40,9.20
2007,06,20,05,41,9.20
2007,06,20,05,42,9.20
2007,06,20,05,43,9.20
2007,06,20,05,44,9.20
2007,06,20,05,45,9.20
2007,06,20,05,46,9.20
2007,06,20,05,47,9.20
2007,06,20,05,48,9.20
2007,06,20,05,49,9.20
2007,06,20,05,50,9.20
2007,06,20,05,51,9.20
2007,06,20,05,52,9.30
2007,06,20,05,53,9.30
2007,06,20,05,54,9.30
2007,06,20,05,55,9.40
2007,06,20,05,56,9.40
2007,06,20,05,57,9.40
2007,06,20,05,58,9.50
2007,06,20,05,59,9.50
2007,06,20,06,00,9.50
2007,06,20,06,01,9.60
2007,06,20,06,02,9.60
2007,06,20,06,03,9.70
2007,06,20,06,04,9.70
2007,06,20,06,05,9.70
2007,06,20,06,06,9.80
2007,06,20,06,07,9.80
2007,06,20,06,08,9.80
2007,06,20,06,09,9.90
2007,06,20,06,10,9.90
2007,06,20,06,11,9.90
2007,06,20,06,12,10.00
2007,06,20,06,13,10.10
2007,06,20,06,14,10.10
2007,06,20,06,15,10.20
2007,06,20,06,16,10.30
2007,06,20,06,17,10.30
2007,06,20,06,18,10.40
2007,06,20,06,19,10.40
2007,06,20,06,20,10.40
2007,06,20,06,21,10.40
2007,06,20,06,22,10.40
2007,06,20,06,23,10.40
2007,06,20,06,24,10.50
2007,06,20,06,25,10.60
2007,06,20,06,26,10.60
2007,06,20,06,27,10.60
2007,06,20,06,28,10.60
2007,06,20,06,29,10.60
2007,06,20,06,30,10.60
2007,06,20,06,31,10.60
2007,06,20,06,32,10.60
2007,06,20,06,33,10.60
2007,06,20,06,34,10.60
2007,06,20,06,35,10.60
2007,06,20,06,36,10.60
2007,06,20,06,37,10.60
2007,06,20,06,38,10.60
2007,06,20,06,39,10.70
2007,06,20,06,40,10.70
2007,06,20,06,41,10.70
2007,06,20,06,42,10.70
2007,06,20,06,43,10.70
2007,06,20,06,44,10.70
2007,06,20,06,45,10.80
2007,06,20,06,46,10.80
2007,06,20,06,47,10.80
2007,06,20,06,48,10.90
2007,06,20,06,49,10.90
2007,06,20,06,50,10.90
2007,06,20,06,51,10.90
2007,06,20,06,52,11.00
2007,06,20,06,53,11.10
2007,06,20,06,54,11.10
2007,06,20,06,55,11.10
2007,06,20,06,56,11.10
2007,06,20,06,57,11.20
2007,06,20,06,58,11.20
2007,06,20,06,59,11.20
2007,06,20,07,00,11.30
2007,06,20,07,01,11.30
2007,06,20,07,02,11.30
2007,06,20,07,03,11.40
2007,06,20,07,04,11.40
2007,06,20,07,05,11.40
2007,06,20,07,06,11.40
2007,06,20,07,07,11.40
2007,06,20,07,08,11.40
2007,06,20,07,09,11.40
2007,06,20,07,10,11.50
2007,06,20,07,11,11.60
2007,06,20,07,12,11.60
2007,06,20,07,13,11.60
2007,06,20,07,14,11.60
2007,06,20,07,15,11.60
2007,06,20,07,16,11.70
2007,06,20,07,17,11.70
2007,06,20,07,18,11.70
2007,06,20,07,19,11.70
2007,06,20,07,20,11.80
2007,06,20,07,21,11.80
2007,06,20,07,22,11.80
2007,06,20,07,23,11.80
2007,06,20,07,24,11.80
2007,06,20,07,25,11.80
2007,06,20,07,26,11.80
2007,06,20,07,27,11.80
2007,06,20,07,28,11.90
2007,06,20,07,29,11.90
2007,06,20,07,30,12.00
2007,06,20,07,31,12.00
2007,06,20,07,32,12.00
2007,06,20,07,33,12.10
2007,06,20,07,34,12.10
2007,06,20,07,35,12.20
2007,06,20,07,36,12.20
2007,06,20,07,37,12.30
2007,06,20,07,38,12.30
2007,06,20,07,39,12.30
2007,06,20,07,40,12.40
2007,06,20,07,41,12.50
2007,06,20,07,42,12.60
2007,06,20,07,43,12.70
2007,06,20,07,44,12.80
2007,06,20,07,45,12.80
2007,06,20,07,46,12.80
2007,06,20,07,47,12.90
2007,06,20,07,48,13.00
2007,06,20,07,49,13.00
2007,06,20,07,50,13.10
2007,06,20,07,51,13.10
2007,06,20,07,52,13.20
2007,06,20,07,53,13.30
2007,06,20,07,54,13.30
2007,06,20,07,55,13.30
2007,06,20,07,56,13.40
2007,06,20,07,57,13.50
2007,06,20,07,58,13.50
2007,06,20,07,59,13.60
2007,06,20,08,00,13.60
2007,06,20,08,01,13.70
2007,06,20,08,02,13.70
2007,06,20,08,03,13.80
2007,06,20,08,04,13.80
2007,06,20,08,05,13.80
2007,06,20,08,06,13.90
2007,06,20,08,07,13.90
2007,06,20,08,08,14.00
2007,06,20,08,09,14.00
2007,06,20,08,10,14.00
2007,06,20,08,11,14.10
2007,06,20,08,12,14.10
2007,06,20,08,13,14.20
2007,06,20,08,14,14.20
2007,06,20,08,15,14.30
2007,06,20,08,16,14.30
2007,06,20,08,17,14.40
2007,06,20,08,18,14.40
2007,06,20,08,19,14.50
2007,06,20,08,20,14.50
2007,06,20,08,21,14.60
2007,06,20,08,22,14.70
2007,06,20,08,23,14.70
2007,06,20,08,24,14.80
2007,06,20,08,25,14.80
2007,06,20,08,26,14.90
2007,06,20,08,27,14.90
2007,06,20,08,28,15.00
2007,06,20,08,29,15.00
2007,06,20,08,30,15.10
2007,06,20,08,31,15.10
2007,06,20,08,32,15.20
2007,06,20,08,33,15.30
2007,06,20,08,34,15.40
2007,06,20,08,35,15.40
2007,06,20,08,36,15.50
2007,06,20,08,37,15.60
2007,06,20,08,38,15.70
2007,06,20,08,39,15.80
2007,06,20,08,40,15.90
2007,06,20,08,41,16.00
2007,06,20,08,42,16.10
2007,06,20,08,43,16.20
2007,06,20,08,44,16.30
2007,06,20,08,45,16.40
2007,06,20,08,46,16.40
2007,06,20,08,47,16.50
2007,06,20,08,48,16.60
2007,06,20,08,49,16.70
2007,06,20,08,50,16.70
2007,06,20,08,51,16.70
2007,06,20,08,52,16.80
2007,06,20,08,53,16.80
2007,06,20,08,54,16.80
2007,06,20,08,55,16.90
2007,06,20,08,56,16.90
2007,06,20,08,57,17.00
2007,06,20,08,58,17.00
2007,06,20,08,59,17.10
2007,06,20,09,00,17.10
2007,06,20,09,01,17.20
2007,06,20,09,02,17.30
2007,06,20,09,03,17.30
2007,06,20,09,04,17.40
2007,06,20,09,05,17.50
2007,06,20,09,06,17.60
2007,06,20,09,07,17.70
2007,06,20,09,08,17.80
2007,06,20,09,09,17.90
2007,06,20,09,10,17.90
2007,06,20,09,11,18.00
2007,06,20,09,12,18.10
2007,06,20,09,13,18.20
2007,06,20,09,14,18.20
2007,06,20,09,15,18.30
2007,06,20,09,16,18.30
2007,06,20,09,17,18.40
2007,06,20,09,18,18.40
2007,06,20,09,19,18.40
2007,06,20,09,20,18.50
2007,06,20,09,21,18.50
2007,06,20,09,22,18.60
2007,06,20,09,23,18.60
2007,06,20,09,24,18.60
2007,06,20,09,25,18.70
2007,06,20,09,26,18.70
2007,06,20,09,27,18.60
2007,06,20,09,28,18.60
2007,06,20,09,29,18.50
2007,06,20,09,30,18.50
2007,06,20,09,31,18.60
2007,06,20,09,32,18.60
2007,06,20,09,33,18.60
2007,06,20,09,34,18.60
2007,06,20,09,35,18.60
2007,06,20,09,36,18.70
2007,06,20,09,37,18.70
2007,06,20,09,38,18.80
2007,06,20,09,39,18.80
2007,06,20,09,40,18.90
2007,06,20,09,41,18.90
2007,06,20,09,42,18.90
2007,06,20,09,43,18.90
2007,06,20,09,44,18.90
2007,06,20,09,45,19.00
2007,06,20,09,46,19.00
2007,06,20,09,47,19.10
2007,06,20,09,48,19.10
2007,06,20,09,49,19.10
2007,06,20,09,50,19.20
2007,06,20,09,51,19.30
2007,06,20,09,52,19.40
2007,06,20,09,53,19.40
2007,06,20,09,54,19.40
2007,06,20,09,55,19.50
2007,06,20,09,56,19.50
2007,06,20,09,57,19.60
2007,06,20,09,58,19.60
2007,06,20,09,59,19.50
2007,06,20,10,00,19.40
2007,06,20,10,01,19.40
2007,06,20,10,02,19.30
2007,06,20,10,03,19.30
2007,06,20,10,04,19.30
2007,06,20,10,05,19.30
2007,06,20,10,06,19.20
2007,06,20,10,07,19.20
2007,06,20,10,08,19.30
2007,06,20,10,09,19.30
2007,06,20,10,10,19.30
2007,06,20,10,11,19.40
2007,06,20,10,12,19.40
2007,06,20,10,13,19.50
2007,06,20,10,14,19.60
2007,06,20,10,15,19.60
2007,06,20,10,16,19.70
2007,06,20,10,17,19.80
2007,06,20,10,18,19.90
2007,06,20,10,19,19.90
2007,06,20,10,20,19.90
2007,06,20,10,21,19.90
2007,06,20,10,22,19.90
2007,06,20,10,23,19.90
2007,06,20,10,24,19.90
2007,06,20,10,25,20.00
2007,06,20,10,26,20.10
2007,06,20,10,27,20.20
2007,06,20,10,28,20.20
2007,06,20,10,29,20.20
2007,06,20,10,30,20.20
2007,06,20,10,31,20.20
2007,06,20,10,32,20.20
2007,06,20,10,33,20.20
2007,06,20,10,34,20.20
2007,06,20,10,35,20.20
2007,06,20,10,36,20.20
2007,06,20,10,37,20.20
2007,06,20,10,38,20.20
2007,06,20,10,39,20.20
2007,06,20,10,40,20.20
2007,06,20,10,41,20.20
2007,06,20,10,42,20.20
2007,06,20,10,43,20.10
2007,06,20,10,44,20.00
2007,06,20,10,45,19.90
2007,06,20,10,46,19.90
2007,06,20,10,47,20.00
2007,06,20,10,48,20.10
2007,06,20,10,49,20.10
2007,06,20,10,50,20.10
2007,06,20,10,51,20.00
2007,06,20,10,52,19.90
2007,06,20,10,53,19.80
2007,06,20,10,54,19.70
2007,06,20,10,55,19.60
2007,06,20,10,56,19.60
2007,06,20,10,57,19.50
2007,06,20,10,58,19.50
2007,06,20,10,59,19.50
2007,06,20,11,00,19.50
2007,06,20,11,01,19.50
2007,06,20,11,02,19.60
2007,06,20,11,03,19.70
2007,06,20,11,04,19.70
2007,06,20,11,05,19.80
2007,06,20,11,06,19.90
2007,06,20,11,07,19.90
2007,06,20,11,08,19.90
2007,06,20,11,09,19.90
2007,06,20,11,10,19.90
2007,06,20,11,11,19.90
2007,06,20,11,12,20.10
2007,06,20,11,13,20.10
2007,06,20,11,14,20.20
2007,06,20,11,15,20.20
2007,06,20,11,16,20.20
2007,06,20,11,17,20.10
2007,06,20,11,18,20.00
2007,06,20,11,19,19.90
2007,06,20,11,20,19.90
2007,06,20,11,21,19.90
2007,06,20,11,22,19.90
2007,06,20,11,23,19.90
2007,06,20,11,24,19.90
2007,06,20,11,25,20.00
2007,06,20,11,26,20.10
2007,06,20,11,27,20.10
2007,06,20,11,28,20.10
2007,06,20,11,29,20.10
2007,06,20,11,30,20.20
2007,06,20,11,31,20.20
2007,06,20,11,32,20.20
2007,06,20,11,33,20.30
2007,06,20,11,34,20.30
2007,06,20,11,35,20.40
2007,06,20,11,36,20.40
2007,06,20,11,37,20.40
2007,06,20,11,38,20.50
2007,06,20,11,39,20.50
2007,06,20,11,40,20.50
2007,06,20,11,41,20.50
2007,06,20,11,42,20.50
2007,06,20,11,43,20.60
2007,06,20,11,44,20.70
2007,06,20,11,45,20.70
2007,06,20,11,46,20.80
2007,06,20,11,47,20.90
2007,06,20,11,48,21.00
2007,06,20,11,49,21.10
2007,06,20,11,50,21.10
2007,06,20,11,51,21.20
2007,06,20,11,52,21.20
2007,06,20,11,53,21.30
2007,06,20,11,54,21.30
2007,06,20,11,55,21.40
2007,06,20,11,56,21.40
2007,06,20,11,57,21.40
2007,06,20,11,58,21.30
2007,06,20,11,59,21.30
2007,06,20,12,00,21.20
2007,06,20,12,01,21.30
2007,06,20,12,02,21.30
2007,06,20,12,03,21.30
2007,06,20,12,04,21.40
2007,06,20,12,05,21.60
2007,06,20,12,06,21.60
2007,06,20,12,07,21.70
2007,06,20,12,08,21.80
2007,06,20,12,09,21.90
2007,06,20,12,10,22.00
2007,06,20,12,11,22.00
2007,06,20,12,12,22.10
2007,06,20,12,13,22.10
2007,06,20,12,14,22.10
2007,06,20,12,15,22.10
2007,06,20,12,16,22.00
2007,06,20,12,17,22.00
2007,06,20,12,18,21.90
2007,06,20,12,19,21.80
2007,06,20,12,20,21.70
2007,06,20,12,21,21.70
2007,06,20,12,22,21.70
2007,06,20,12,23,21.80
2007,06,20,12,24,21.80
2007,06,20,12,25,21.90
2007,06,20,12,26,21.90
2007,06,20,12,27,21.90
2007,06,20,12,28,22.00
2007,06,20,12,29,22.00
2007,06,20,12,30,22.10
2007,06,20,12,31,22.10
2007,06,20,12,32,22.20
2007,06,20,12,33,22.20
2007,06,20,12,34,22.30
2007,06,20,12,35,22.30
2007,06,20,12,36,22.40
2007,06,20,12,37,22.40
2007,06,20,12,38,22.40
2007,06,20,12,39,22.40
2007,06,20,12,40,22.30
2007,06,20,12,41,22.20
2007,06,20,12,42,22.30
2007,06,20,12,43,22.30
2007,06,20,12,44,22.30
2007,06,20,12,45,22.50
2007,06,20,12,46,22.40
2007,06,20,12,47,22.40
2007,06,20,12,48,22.50
2007,06,20,12,49,22.50
2007,06,20,12,50,22.60
2007,06,20,12,51,22.60
2007,06,20,12,52,22.60
2007,06,20,12,53,22.60
2007,06,20,12,54,22.50
2007,06,20,12,55,22.50
2007,06,20,12,56,22.60
2007,06,20,12,57,22.60
2007,06,20,12,58,22.60
2007,06,20,12,59,22.60
2007,06,20,13,00,22.60
2007,06,20,13,01,22.60
2007,06,20,13,02,22.60
2007,06,20,13,03,22.60
2007,06,20,13,04,22.60
2007,06,20,13,05,22.60
2007,06,20,13,06,22.60
2007,06,20,13,07,22.70
2007,06,20,13,08,22.60
2007,06,20,13,09,22.60
2007,06,20,13,10,22.60
2007,06,20,13,11,22.60
2007,06,20,13,12,22.60
2007,06,20,13,13,22.60
2007,06,20,13,14,22.60
2007,06,20,13,15,22.60
2007,06,20,13,16,22.50
2007,06,20,13,17,22.40
2007,06,20,13,18,22.40
2007,06,20,13,19,22.40
2007,06,20,13,20,22.40
2007,06,20,13,21,22.40
2007,06,20,13,22,22.50
2007,06,20,13,23,22.60
2007,06,20,13,24,22.70
2007,06,20,13,25,22.80
2007,06,20,13,26,22.80
2007,06,20,13,27,22.90
2007,06,20,13,28,22.90
2007,06,20,13,29,22.90
2007,06,20,13,30,22.80
2007,06,20,13,31,22.80
2007,06,20,13,32,22.90
2007,06,20,13,33,22.90
2007,06,20,13,34,22.90
2007,06,20,13,35,23.10
2007,06,20,13,36,23.10
2007,06,20,13,37,23.20
2007,06,20,13,38,23.20
2007,06,20,13,39,23.30
2007,06,20,13,40,23.30
2007,06,20,13,41,23.30
2007,06,20,13,42,23.30
2007,06,20,13,43,23.30
2007,06,20,13,44,23.30
2007,06,20,13,45,23.30
2007,06,20,13,46,23.30
2007,06,20,13,47,23.30
2007,06,20,13,48,23.30
2007,06,20,13,49,23.30
2007,06,20,13,50,23.30
2007,06,20,13,51,23.30
2007,06,20,13,52,23.30
2007,06,20,13,53,23.40
2007,06,20,13,54,23.40
2007,06,20,13,55,23.40
2007,06,20,13,56,23.60
2007,06,20,13,57,23.50
2007,06,20,13,58,23.60
2007,06,20,13,59,23.40
2007,06,20,14,00,23.40
2007,06,20,14,01,23.30
2007,06,20,14,02,23.10
2007,06,20,14,03,23.00
2007,06,20,14,04,22.90
2007,06,20,14,05,22.90
2007,06,20,14,06,22.90
2007,06,20,14,07,22.90
2007,06,20,14,08,22.90
2007,06,20,14,09,22.90
2007,06,20,14,10,22.90
2007,06,20,14,11,22.90
2007,06,20,14,12,23.10
2007,06,20,14,13,23.10
2007,06,20,14,14,23.10
2007,06,20,14,15,23.10
2007,06,20,14,16,23.10
2007,06,20,14,17,23.10
2007,06,20,14,18,23.20
2007,06,20,14,19,23.30
2007,06,20,14,20,23.30
2007,06,20,14,21,23.40
2007,06,20,14,22,23.40
2007,06,20,14,23,23.30
2007,06,20,14,24,23.30
2007,06,20,14,25,23.30
2007,06,20,14,26,23.30
2007,06,20,14,27,23.40
2007,06,20,14,28,23.40
2007,06,20,14,29,23.50
2007,06,20,14,30,23.60
2007,06,20,14,31,23.60
2007,06,20,14,32,23.70
2007,06,20,14,33,23.80
2007,06,20,14,34,23.90
2007,06,20,14,35,24.00
2007,06,20,14,36,24.10
2007,06,20,14,37,24.20
2007,06,20,14,38,24.20
2007,06,20,14,39,24.30
2007,06,20,14,40,24.40
2007,06,20,14,41,24.40
2007,06,20,14,42,24.40
2007,06,20,14,43,24.30
2007,06,20,14,44,24.30
2007,06,20,14,45,24.30
2007,06,20,14,46,24.40
2007,06,20,14,47,24.40
2007,06,20,14,48,24.40
2007,06,20,14,49,24.40
2007,06,20,14,50,24.40
2007,06,20,14,51,24.40
2007,06,20,14,52,24.40
2007,06,20,14,53,24.50
2007,06,20,14,54,24.50
2007,06,20,14,55,24.50
2007,06,20,14,56,24.40
2007,06,20,14,57,24.40
2007,06,20,14,58,24.30
2007,06,20,14,59,24.20
2007,06,20,15,00,24.20
2007,06,20,15,01,24.10
2007,06,20,15,02,24.10
2007,06,20,15,03,24.10
2007,06,20,15,04,23.90
2007,06,20,15,05,23.80
2007,06,20,15,06,23.80
2007,06,20,15,07,23.70
2007,06,20,15,08,23.70
2007,06,20,15,09,23.60
2007,06,20,15,10,23.50
2007,06,20,15,11,23.40
2007,06,20,15,12,23.40
2007,06,20,15,13,23.50
2007,06,20,15,14,23.60
2007,06,20,15,15,23.60
2007,06,20,15,16,23.60
2007,06,20,15,17,23.60
2007,06,20,15,18,23.70
2007,06,20,15,19,23.70
2007,06,20,15,20,23.70
2007,06,20,15,21,23.70
2007,06,20,15,22,23.70
2007,06,20,15,23,23.70
2007,06,20,15,24,23.70
2007,06,20,15,25,23.60
2007,06,20,15,26,23.60
2007,06,20,15,27,23.60
2007,06,20,15,28,23.70
2007,06,20,15,29,23.70
2007,06,20,15,30,23.70
2007,06,20,15,31,23.80
2007,06,20,15,32,23.80
2007,06,20,15,33,23.80
2007,06,20,15,34,23.70
2007,06,20,15,35,23.80
2007,06,20,15,36,23.70
2007,06,20,15,37,23.80
2007,06,20,15,38,23.80
2007,06,20,15,39,23.80
2007,06,20,15,40,23.80
2007,06,20,15,41,23.80
2007,06,20,15,42,23.90
2007,06,20,15,43,23.90
2007,06,20,15,44,24.10
2007,06,20,15,45,24.10
2007,06,20,15,46,24.10
2007,06,20,15,47,24.10
2007,06,20,15,48,24.10
2007,06,20,15,49,24.10
2007,06,20,15,50,23.90
2007,06,20,15,51,23.90
2007,06,20,15,52,23.90
2007,06,20,15,53,24.00
2007,06,20,15,54,24.10
2007,06,20,15,55,24.00
2007,06,20,15,56,23.90
2007,06,20,15,57,23.90
2007,06,20,15,58,23.90
2007,06,20,15,59,23.90
2007,06,20,16,00,23.90
2007,06,20,16,01,23.90
2007,06,20,16,02,23.90
2007,06,20,16,03,24.00
2007,06,20,16,04,24.10
2007,06,20,16,05,24.10
2007,06,20,16,06,24.20
2007,06,20,16,07,24.20
2007,06,20,16,08,24.20
2007,06,20,16,09,24.10
2007,06,20,16,10,24.10
2007,06,20,16,11,24.10
2007,06,20,16,12,24.20
2007,06,20,16,13,24.30
2007,06,20,16,14,24.30
2007,06,20,16,15,24.40
2007,06,20,16,16,24.40
2007,06,20,16,17,24.30
2007,06,20,16,18,24.40
2007,06,20,16,19,24.30
2007,06,20,16,20,24.30
2007,06,20,16,21,24.30
2007,06,20,16,22,24.40
2007,06,20,16,23,24.40
2007,06,20,16,24,24.30
2007,06,20,16,25,24.10
2007,06,20,16,26,24.00
2007,06,20,16,27,23.90
2007,06,20,16,28,23.90
2007,06,20,16,29,23.90
2007,06,20,16,30,23.80
2007,06,20,16,31,23.70
2007,06,20,16,32,23.70
2007,06,20,16,33,23.70
2007,06,20,16,34,23.70
2007,06,20,16,35,23.70
2007,06,20,16,36,23.70
2007,06,20,16,37,23.70
2007,06,20,16,38,23.70
2007,06,20,16,39,23.70
2007,06,20,16,40,23.70
2007,06,20,16,41,23.70
2007,06,20,16,42,23.70
2007,06,20,16,43,23.70
2007,06,20,16,44,23.70
2007,06,20,16,45,23.60
2007,06,20,16,46,23.60
2007,06,20,16,47,23.60
2007,06,20,16,48,23.60
2007,06,20,16,49,23.60
2007,06,20,16,50,23.60
2007,06,20,16,51,23.70
2007,06,20,16,52,23.70
2007,06,20,16,53,23.70
2007,06,20,16,54,23.70
2007,06,20,16,55,23.70
2007,06,20,16,56,23.70
2007,06,20,16,57,23.70
2007,06,20,16,58,23.70
2007,06,20,16,59,23.70
2007,06,20,17,00,23.70
2007,06,20,17,01,23.70
2007,06,20,17,02,23.70
2007,06,20,17,03,23.70
2007,06,20,17,04,23.70
2007,06,20,17,05,23.80
2007,06,20,17,06,23.80
2007,06,20,17,07,23.80
2007,06,20,17,08,23.80
2007,06,20,17,09,23.80
2007,06,20,17,10,23.80
2007,06,20,17,11,23.80
2007,06,20,17,12,23.80
2007,06,20,17,13,23.80
2007,06,20,17,14,23.80
2007,06,20,17,15,23.70
2007,06,20,17,16,23.70
2007,06,20,17,17,23.60
2007,06,20,17,18,23.50
2007,06,20,17,19,23.40
2007,06,20,17,20,23.30
2007,06,20,17,21,23.30
2007,06,20,17,22,23.30
2007,06,20,17,23,23.30
2007,06,20,17,24,23.30
2007,06,20,17,25,23.30